Location: Broek
(53.2737°N, 5.9967°E)
Time: 12:07:10
(UTC+00:00)

SL-08 R/B - Pass Details

Date: 10 October 2024
Orbit: 945 x 993 km, 83.0° (Epoch: 14 November)

Event Time Altitude Azimuth Distance (km) Brightness Sun altitude
Rises 18:41:42 0° 351° (N) 3,628 7.8 -17.4°
Reaches altitude 10° 18:44:17 10° 356° (N) 2,680 7.0 -17.7°
Maximum altitude 18:50:14 51° 72° (ENE) 1,188 4.6 -18.6°
Enters shadow 18:53:21 27° 134° (SE) 1,737 5.3 -19.1°
